Погода Великие Луки

Погода Великие Луки : погода сейчас, прогноз погоды и архив. Всё, что Вы хотите узнать о погоде Великие Луки!

Поиск расширенной информации на нашем сайте:

Другие новости

Новости СМИ2

Главная страница сайта

Новости сайта

02.10.2013

Напоминаем, что на нашем новом сайте вы можете получить высокодетализированные прогнозы погоды по пунктам России, СНГ и мира (включающие важные для авиации метеовеличины, такие как направление и скорость ветра, видимость, явления погоды, количество и форма облачности, нижняя и верхняя граница облачности), а также ознакомиться с разнообразными материалами по авиационной метеорологии и подборкой полезных ссылок на эту тему.

Сайт Метеоцентр.Азия посвящён разработке технологий оптимизации авиаметеорологического обслуживания, включая проектирование и перспективное создание нескольких автоматизированных авиаметеорологических систем:
- система выпуска высокодетальных прогностических карт явлений погоды для нижнего воздушного пространства по России и ближнему зарубежью;
- система верификации прогнозов TAF (выпускаемых синоптиками официальных АМСГ РФ и ближнего зарубежья) и AUTOTAF (выпускаемых сайтом Метеоцентр.Азия) - выявление ошибок, онлайн-сопоставление с фактической погодой METAR, автоматическое внесение коррективов в прогнозы при резком отклонении фактической погоды от прогноза, подсчёт оправдываемости прогнозов по элементам и в целом;
- система обработки, анализа и отображения авиаметеорологической информации для применения провайдерами метеорологической информации.

Рекомендуем: Разнообразные свитшоты мужские.

Погода Великие Луки - сегодня

Время (UTC), дата Ветер
(°,м/с) 
Видим.   Явления Облачность Т
(°С)
Тd
(°С)
f(%) Тe
(°С)
Pmin
(гПа)
dP
(гПа)
Po
(мм)
O2
(г/м3)
Тmin Tmax R s Состояние
почвы
00 25.04.17 210 (ЮЗ) 10 км    3/3 1000 м 
[Sc]
+0.4 -1.6 86 +1  1011.4  749  301           
03 25.04.17 190 (Ю) 10 км    ясно 
-0.7 -1 98 -2  1011.5  0.1  749  303  -0.8         
06 25.04.17 170 (Ю) 10 км    10/0 верхняя 
[Ci fib]
+6 +0.7 69 +5  1011.6  0.4  749  295  -0.8        мокрая 
09 25.04.17 190 (Ю) 10 км    10/8 600 м кучево-дожд., верхняя 
[Cb cap|Ci fib]
+8.9 -2.6 44 +7  1011  -0.5  749  292           
12 25.04.17 160 (Ю) 4{11}  10 км    8/8 1000 м 
[Sc]
+10.2 -1.4 44 +9  1009.8  -1.1  748  291           
15 25.04.17 160 (Ю) 3{11}  10 км    10/10 600 м кучево-дожд. 
[Cb cap]
+9.6 -0.5 49 +9  1008.8  -1  747  291           
18 25.04.17 150 (ЮВ) 3{10}  4000 м  слаб. ливневой дождь  10/10 600 м кучево-дожд. 
[Cb cap]
+8.2 +1.8 64 +8  1007.9  -1  746  292    +11.1  0.0     
21 25.04.17 150 (ЮВ) 5-11{11}  10 км  {ливн. осадки}  10/10 600 м кучево-дожд. 
[Cb cap]
+8.7 +1.9 62 +7  1004.2  -3.6  744  290           
00 26.04.17 170 (Ю) 3{11}  4000 м  слаб. ливневой дождь  10/10 600 м кучево-дожд. 
[Cb cap]
+8.4 +4.2 75 +8  1002.4  -1.7  742  289           
03 26.04.17 200 (Ю) 4000 м  слаб. ливневой дождь  10/10 600 м кучево-дожд. 
[Cb cap]
+8.5 +5.4 81 +8  1003.1  0.8  743  289  +7.5    0.4     
06 26.04.17 220 (ЮЗ) 4{11}  4000 м  слаб. ливневой дождь  10/10 600 м кучево-дожд. 
[Cb cap]
+5.1 +2.8 85 +3  1005.9  2.6  745  294  +5.1      мокрая 
09 26.04.17 210 (ЮЗ) 10 км  в посл. час ливневой дождь  10/10 600 м кучево-дожд. 
[Cb cap]
+5.3 +3.3 87 +4  1007.5  1.6  746  294           
12 26.04.17 200 (Ю) 10 км  {ливн. осадки}  10/8 600 м кучево-дожд., верхняя 
[Cb cap|Cs]
+6.6 +2.5 75 +5  1008.7  1.2  747  293           
15 26.04.17 200 (Ю) 10 км    10/3 600 м кучево-дожд., верхняя 
[Cb cap|Cs]
+7.2 +1.9 69 +6  1009.3  0.6  747  293         
18 26.04.17 190 (Ю) 10 км    10/10 600 м кучево-дожд. 
[Cb cap]
+5.4 +2.8 83 +5  1010.7  1.3  748  295    +7.5  0.3     
21 26.04.17 200 (Ю) 10 км    6/6 1000 м 
[Sc]
+4.4 +2.7 89 +4  1012.2  1.4  749  297           
00 27.04.17 200 (Ю) 10 км    ясно 
+2.6 +1.8 94 +2  1012.6  0.3  750  299           
03 27.04.17 190 (Ю) 10 км    10/10 600 м 
[Sc]
+2.4 +2.2 99 +3  1013.1  0.4  750  299  +1.9         
06 27.04.17 210 (ЮЗ) 10 км    10/10 600 м 
[Sc]
+5.1 +2.5 83 +4  1013.6  0.7  751  296  +1.9        мокрая 
09 27.04.17 230 (ЮЗ) 10 км    10/8 600 м кучево-дожд., верхняя 
[Cb cap|Cs]
+8.1 -0.4 55 +7  1013.7  0.2  751  294           
12 27.04.17 190 (Ю) 10 км    10/6 600 м кучево-дожд., верхняя 
[Cb cap|Cs]
+8.6 +2 63 +8  1014.1  0.4  751  293           
15 27.04.17 180 (Ю) 10 км    10/8 600 м верхняя 
[Sc|Cs]
+7.7 +2.8 71 +8  1015.2  752  294           
18 27.04.17 180 (Ю) 10 км    10/10 600 м 
[Sc]
+5.6 +2.5 80 +6  1016.4  1.1  753  297    +9.2       
21 27.04.17 200 (Ю) 10 км    9/9 600 м 
[Sc]
+3.5 +2.1 91 +4  1017.3  0.8  753  299           
00 28.04.17 190 (Ю) 10 км    10/10 600 м 
[Sc]
+2.4 +1.7 95 +3  1019  1.6  754  301           
Время (UTC), дата Ветер
(°,м/с) 
Видим.   Явления Облачность Т
(°С)
Тd
(°С)
f(%) Тe
(°С)
Pmin
(гПа)
dP
(гПа)
Po
(мм)
O2
(г/м3)
Тmin Tmax R s Состояние
почвы

Для получения пояснительной информации подведите курсор к названию столбца.

ПОГОДА Великие Луки - архив

Всё, что Вы хотите узнать о погоде Великие Луки - удобно и подробно!

Выберите нужную дату (начиная с 1 января 2015* года) и нажмите кнопку "Найти".
Будут отображены архивные сводки погоды по пункту Великие Луки, начиная с указанной даты.


Отображать данные в формате CSV (для использования в таблицах Excel)


Внимание! Наш архив погоды предназначен исключительно для личного некоммерческого использования в познавательных целях. Если Вам необходимы официальные справки о состоянии погоды (для производственных, юридических, коммерческих и т.п. целей), обращайтесь в органы Росгидромета.

*Примечание: данная дата относится к архиву по метеостанциям СССР (Россия, СНГ, Балтия).
Архив по метеостанциям Зарубежной Европы и Азии (кроме Китая) хранится 10 дней, по другим регионам земного шара (Китай, Африка, Америка, Австралия, Океания) - 1 день.

Великие Луки - район местоположения метеостанции


Название, широта, долгота, высота метеостанции:
Великие Луки 56.3°ш. 30.6°д. 99 м над ур. моря [Российская Федерация]

Дополнительная информация

В oтличие oт бoльшинства пoгoдных сайтoв мы публикуем пoдрoбную метеoинфoрмацию в детальнoм прoфессиoнальнoм фoрмате.

Характеристики температуры и влажнoсти вoздуха измеряются на высoте 2 м в тени вдали oт зданий и деревьев.
Скoрoсть ветра измеряется на высoте 10 м (на урoвне рoста челoвека скoрoсть ветра ниже в 1.5-2 раза). Если метеoстанция нахoдится в гoрoде или в лесу, тo скoрoсть ветра занижена на 2-4 м/с пo сравнению с oткрытым местoм. Скoрoсть ветра над акватoриями крупных рек и oзёр, а также на вершинах хoлмoв на 2-5 м/с выше, чем в oбычных услoвиях.
Атмoсфернoе давление в разных тoчках местнoсти мoжет значительнo oтличаться oт давления на метеoстанции, в зависимoсти oт услoвий рельефа (при пoдъёме на 10 м давление пoнижается примернo на 1 мм рт.ст.).